Other Public Products
Issued by NWS Charleston, SC

Home | Current Version | Previous Version | Text Only | Print | Product List | Glossary On
Versions: 1 2 3 4 5 6 7 8 9 10 11 12 13 14 15 16 17 18 19 20 21 22 23 24 25 26 27 28 29 30 31 32 33 34 35 36 37 38 39 40 41 42 43 44 45 46 47 48 49 50
000
FPUS82 KCHS 191727
OPUCHS

TEST...KCHS/KSAV Gateway Observations...TEST
National Weather Service Charleston SC
100 PM EDT THU OCT 19 2017

NOTE: "fair" indicates few or no clouds below 12,000 feet with no
significant weather and/or obstructions to visibility.

SCZ050-WAZ558-NCZ071-TXZ119-213-PAZ071-DCZ001-FLZ074-172-MI076-
NYZ176-178-MAZ016-IL014-TNZ027-NJZ106-GAZ044-MD014-191800-

...Gateway Observations for Charleston International...

CITY           SKY/WX    TMP DP  RH WIND       PRES   REMARKS
Chas Airport   MOSUNNY   78  59  51 NE8       30.24F
Seattle        CLOUDY    53  51  93 S10       29.57F
Charlotte      MOSUNNY   69  42  37 CALM      30.30F
Dallas DFW     PTSUNNY   76  57  51 S8        30.16S HAZE
Dallas Love    PTSUNNY   76  55  48 S8        30.17F
Philladelphia  MOSUNNY   68  43  40 SW13      30.23F
Wash National  SUNNY     68  46  45 S10       30.24F
Baltimore      MOSUNNY   68  43  40 SW7       30.23F
Miami          PTSUNNY   89  74  60 E10       30.01F HX  98
Detroit        MOSUNNY   69  49  48 W10       30.13S
Newark         MOSUNNY   71  41  33 SW17G23   30.19F
Laguardia      MOSUNNY   69  41  36 SW15G22   30.19F
J F K          MOSUNNY   67  46  47 SW13      30.21F
Boston Logan   MOSUNNY   73  48  41 SW18      30.12F
Ft. Lauderdale MOSUNNY   85  76  74 E13       30.01F HX  94
Chicago O`Hare MOSUNNY   66  26  22 VRB3      30.19S
Chicago Midway MOSUNNY   67  25  20 NE5       30.20R
Houston Bush   PTSUNNY   81  64  56 SE6       30.14F
Houston Hobby  MOSUNNY   83  64  52 E14       30.13F
Nashville      SUNNY     71  45  39 NW6       30.31F
Atlanta        MOSUNNY   69  43  38 N5        30.31F

$$

GAZ044-118-TXZ119-213-NCZ071-DCZ001-MDZ014-506-PAZ021-071-NJZ106-
NYZ176-178-MAZ106-OHZ011-021-055-MIZ076-KYZ091-ILZ014-INZ047-
MNZ060-ONZ431-191800-

...Gateway Observations for Savannah International...

CITY           SKY/WX    TMP DP  RH WIND       PRES   REMARKS
Savannah Arpt  MOSUNNY   78  60  53 NE9       30.25F
Atlanta        MOSUNNY   69  43  38 N5        30.31F
Charlotte      MOSUNNY   69  42  37 CALM      30.30F
Dallas DFW     PTSUNNY   76  57  51 S8        30.16S HAZE
Houston Bush   PTSUNNY   81  64  56 SE6       30.14F
Wash National  SUNNY     68  46  45 S10       30.24F
Wash Dulles    SUNNY     67  47  48 S5        30.23F
Baltimore      MOSUNNY   68  43  40 SW7       30.23F
Philadelphia   MOSUNNY   68  43  40 SW13      30.23F
Newark         MOSUNNY   71  41  33 SW17G23   30.19F
Laguardia      MOSUNNY   69  41  36 SW15G22   30.19F
J F K          MOSUNNY   67  46  47 SW13      30.21F
Boston         MOSUNNY   73  48  41 SW18      30.12F
Pittsburg      MOSUNNY   66  46  48 SW9G18    30.21F
Akron          MOSUNNY   67  48  50 SW14      30.18F
Cleveland      MOSUNNY   70  49  47 SW12      30.16F
Cincinnati     PTSUNNY   67  51  56 SW10      30.24F
Columbus       SUNNY     69  49  48 W8G21     30.22S
Detroit        MOSUNNY   69  49  48 W10       30.13S
Chicago O`Hare MOSUNNY   66  26  22 VRB3      30.19S
Minneapolis    MOSUNNY   63  35  35 S8        30.06F
Indianapolis   MOSUNNY   69  51  52 SW8       30.20F
Toronto Canada MOSUNNY   68  48  49 W20G26    29.99S

$$




USA.gov is the U.S. government's official web portal to all federal, state and local government web resources and services.